Flag for Canada Weather past 2 weeks in Whistler, British Columbia, Canada

Now
43 °F

Quite cool.


Feels Like: 43 °F
Forecast: 33 / 50 °F
Wind: 1 mph from Southeast

Location: Squamish Airport

Current Time: Mar 5, 2015 at 8:43:41 PM

Latest Report: Mar 5, 2015 at 8:00 PM


Visibility: N/A

Pressure: 30.38 "Hg

Humidity: 76%

Dew point: 36 °F

Location of WhistlerLocation

Historic Weather in Whistler — Graph

°F

Whistler temperature yesterday

Maximum temperature yesterday: 49 °F (at 2:00 PM)
Minimum temperature yesterday: 25 °F (at 6:00 AM)
Average temperature yesterday: 35 °F

Past Weeks' High & Low Weather Summary

 TemperatureHumidityPressure
High60 °F (Feb 21, 2:00 PM)100% (Feb 19, 12:00 AM)30.52 "Hg (Feb 19, 12:00 AM)
Low25 °F (Mar 4, 6:00 AM)14% (Mar 2, 2:00 PM)29.79 "Hg (Feb 27, 7:00 AM)
Average41 °F74%30.24 "Hg
* Reported Feb 18 7:00 PM — Mar 5 7:00 PM, Whistler, Weather by CustomWeather, © 2015

Note: Actual official high and low records may vary slightly from our data, if they occured in-between our weather recording intervals... More about our weather records

Advertising

Whistler weather history for previous 24 hours

 ConditionsComfort  
Time TempWeatherWind HumidityBarometerVisibility
7:00 PM
Thu, Mar 5
45 °FCool.No wind67%30.37 "HgN/A
6:00 PM49 °FCool.2 mph50%30.36 "HgN/A
5:00 PM50 °FCool.5 mph49%30.36 "HgN/A
4:00 PM51 °FCool.5 mph44%30.35 "HgN/A
3:00 PM52 °FCool.6 mph40%30.34 "HgN/A
2:00 PM51 °FCool.5 mph42%30.35 "HgN/A
1:00 PM51 °FCool.6 mph38%30.35 "HgN/A
12:00 PM49 °FCool.2 mph47%30.37 "HgN/A
11:00 AM46 °FCool.1 mph52%30.36 "HgN/A
10:00 AM40 °FChilly.2 mph67%30.37 "HgN/A
9:00 AM35 °FChilly.2 mph78%30.38 "HgN/A
8:00 AM31 °FChilly.No wind90%30.36 "HgN/A
7:00 AM30 °FChilly.2 mph92%30.36 "HgN/A
6:00 AM30 °FChilly.2 mph93%30.34 "HgN/A
5:00 AM30 °FChilly.1 mph92%30.33 "HgN/A
4:00 AM30 °FChilly.1 mph91%30.32 "HgN/A
3:00 AM30 °FChilly.1 mph91%30.33 "HgN/A
2:00 AM31 °FChilly.1 mph89%30.33 "HgN/A
1:00 AM31 °FChilly.1 mph89%30.32 "HgN/A
12:00 AM31 °FChilly.No wind90%30.33 "HgN/A
11:00 PM
Wed, Mar 4
31 °FChilly.No wind88%30.33 "HgN/A
10:00 PM32 °FChilly.No wind87%30.32 "HgN/A
9:00 PM34 °FChilly.No wind83%30.30 "HgN/A
8:00 PM35 °FChilly.No wind80%30.29 "HgN/A
Weather by CustomWeather, © 2015

See weather overviewHow to use our weather pages